Hourly Data Report for October 05, 2017

All times are specified in Local Standard Time (LST). Add 1 hour to adjust for Daylight Saving Time where and when it is observed.

MALAHAT
BRITISH COLUMBIA

48°34'29.700" N
123°31'47.700" W
365.80 m
1014820
71774
WKH

Download Data

Hourly Data (October 2017)
Hourly Data Report for October 5, 2017
Temp Definition
°C
Dew Point Temp Definition
°C
Rel Hum Definition
%
Wind Dir Definition
10's deg

Wind Spd Definition
km/h
Visibility Definition
km
Stn Press Definition
kPa
Hmdx Definition


Wind Chill Definition


Weather Definition


TIME
00:00 12.0 -4.3 32 LegendMM LegendMM   97.73     LegendNANA
01:00 11.3 -2.2 39 LegendMM LegendMM   97.75     LegendNANA
02:00 11.1 -0.7 44 LegendMM LegendMM   97.75     LegendNANA
03:00 10.1 0.4 51 LegendMM LegendMM   97.76     LegendNANA
04:00 9.7 -0.7 48 LegendMM LegendMM   97.76     LegendNANA
05:00 9.9 -1.9 44 LegendMM LegendMM   97.76     LegendNANA
06:00 10.1 -0.7 47 LegendMM LegendMM   97.77     LegendNANA
07:00 10.5 0.3 49 LegendMM LegendMM   97.80     LegendNANA
08:00 11.9 2.2 51 LegendMM LegendMM   97.80     LegendNANA
09:00 12.2 3.1 54 LegendMM LegendMM   97.82     LegendNANA
10:00 13.6 3.0 49 LegendMM LegendMM   97.82     LegendNANA
11:00 13.9 3.7 50 LegendMM LegendMM   97.82     LegendNANA
12:00 15.0 2.7 44 LegendMM LegendMM   97.78     LegendNANA
13:00 16.8 1.2 35 LegendMM LegendMM   97.74     LegendNANA
14:00 16.5 1.3 36 LegendMM LegendMM   97.70     LegendNANA
15:00 16.1 0.0 33 LegendMM LegendMM   97.66     LegendNANA
16:00 15.4 1.2 38 LegendMM LegendMM   97.62     LegendNANA
17:00 15.0 2.4 43 LegendMM LegendMM   97.58     LegendNANA
18:00 13.5 2.5 47 LegendMM LegendMM   97.59     LegendNANA
19:00 13.7 2.2 46 LegendMM LegendMM   97.58     LegendNANA
20:00 14.3 1.1 41 LegendMM LegendMM   97.57     LegendNANA
21:00 13.3 1.6 45 LegendMM LegendMM   97.55     LegendNANA
22:00 13.6 1.6 44 LegendMM LegendMM   97.54     LegendNANA
23:00 13.1 1.2 44 LegendMM LegendMM   97.54     LegendNANA

Notes on Data Quality.

Legend

  • E = Estimated
  • M = Missing
  • NA = Not Available
  • ‡ = Partner data that is not subject to review by the National Climate Archives
Date modified: